STARLINK-2566, 48287

Orbit data source: Space-Track

STARLINK-2566, 48287 is a payload satellite owned by SpaceX/Seattle (US) in LEO that was launched on Thu, 29 Apr 2021 UTC via an FALCON 9 launch vehicle from the Air Force Eastern Test Range (AFETR). Payload-class satellites include a variety of spacecraft equipped with specific instruments for various scientific and technological missions. These include communications satellites like Starlink; space stations such as the ISS; scientific satellites like the Hubble; Earth observation satellites from companies like Planet Labs, Umbra, and HawkEye 360; GPS; miniature CubeSats for education and research; and military/defense satellites.

Loading next visibility...
Identifier
48287, 2021-036M
Orbit
LEO
Country
Flag of USUS
Related business
Manufacturer
SpaceX/Seattle
Mission
Operational Commercial Communications
Bus & Motor
STARLINK, Unknown motor
Mass
260 kg wet, ~248 kg dry
Launch date (UTC)
2021-04-29 (5 years ago)
Launch vehicle
FALCON 9
Launch site
Air Force Eastern Test Range (AFETR)
Object type
Payload
Rocket body
Debris
Shape & HBR
Box + 1 Pan, 10.1 m
Radar Cross Section
13.562 m², Large (>1 m²)

Expand to show TLE details & history
Last TLE update: 20 hours ago

TLE from 20 hours ago
0 STARLINK-2566
1 48287U 21036M   26035.80840293 -.00000670  00000-0 -26063-4 0  9997
2 48287  53.0540 229.2270 0001504  99.5760 260.5399 15.06394236263350
Epoch: 2026-02-04T19:24Z
TLE epoch observation values (Epoch: 2026-02-04T19:24:06.013Z)
Latitude
-0°
Longitude
163.23227°
Altitude
548.28 km
Speed
7.589 km/s
True Right ascension
15h 16m 54s
True Declination
0° 00' 00"
Sunlit
Object was in daylight at epoch
Visualization orbit readout
Latitude
Unknown
Longitude
Unknown
Altitude
Unknown
Speed
Unknown
Apparent Right ascension
Unknown
Apparent Declination
Unknown
Sunlit
N/A
Visualization observer readout
Local Sidereal Time
16:57:06
Azimuth
Unknown
Elevation
Unknown
Doppler factor
Unknown
Orbital elements
Apogee altitude
548.542 km
Perigee altitude
546.458 km
Semi-major axis
6,925.637 km
Eccentricity
0.00015
Inclination
53.054°
RAAN
229.227°
Arg. of periapsis
99.576°
True anomaly
260.5229°
Mean anomaly
260.5399°
Eccentric anomaly
260.5314°
Mean motion
3.76577 °/min
Orbital period
95.6 mins
BSTAR
-0.000026063
Loading maneuver chart data...
Computing Atmospheric mass density...
Loading historical data...
Loading historical data...
Loading historical data...
Loading historical data...
Loading historical data...
Loading historical data...
Loading historical data...

Documentation

Showing up to 5 results
|